This is the latest recevied weather packets stored in our database for station/object KC5AV. If no packets are shown the sender has not sent any weather packets the latest 10 day(s).
| Time | Temp. | Humidity | Pressure | Rain* | Wind** | Luminosity | Snow |
|---|---|---|---|---|---|---|---|
| 1778028223 | 26.67° C | 76% | 1006.8 hPa | 0 mm | - | 14 W/m² | - |
| 1778027919 | 26.67° C | 76% | 1006.3 hPa | 0 mm | - | 19 W/m² | - |
| 1778027615 | 27.22° C | 75% | 1006.3 hPa | 0 mm | - | 20 W/m² | - |
| 1778027312 | 27.22° C | 74% | 1006.3 hPa | 0 mm | - | 28 W/m² | - |
| 1778027009 | 27.22° C | 74% | 1006.4 hPa | 0 mm | - | 32 W/m² | - |
| 1778026704 | 27.78° C | 73% | 1006.5 hPa | 0 mm | - | 39 W/m² | - |
| 1778026401 | 27.78° C | 72% | 1006.8 hPa | 0 mm | - | 41 W/m² | - |
| 1778026098 | 27.78° C | 71% | 1006.5 hPa | 0 mm | - | 46 W/m² | - |
| 1778025796 | 28.33° C | 71% | 1006.4 hPa | 0 mm | - | 53 W/m² | - |
| 1778025493 | 28.33° C | 70% | 1006.6 hPa | 0 mm | - | 58 W/m² | - |
| 1778025190 | 28.33° C | 70% | 1006.8 hPa | 0 mm | - | 75 W/m² | - |
| 1778024887 | 28.89° C | 69% | 1006.8 hPa | 0 mm | - | 85 W/m² | - |
| 1778024585 | 28.33° C | 70% | 1006.5 hPa | 0 mm | - | 102 W/m² | - |
| 1778024281 | 28.89° C | 69% | 1006.5 hPa | 0 mm | - | 98 W/m² | - |
| 1778023979 | 28.89° C | 69% | 1006.4 hPa | 0 mm | - | 117 W/m² | - |
| 1778023676 | 28.89° C | 68% | 1006.4 hPa | 0 mm | - | 69 W/m² | - |
| 1778023374 | 29.44° C | 68% | 1006.6 hPa | 0 mm | - | 109 W/m² | - |
| 1778023070 | 29.44° C | 68% | 1006.2 hPa | 0 mm | - | 137 W/m² | - |
| 1778022769 | 29.44° C | 67% | 1006.3 hPa | 0 mm | - | 151 W/m² | - |
| 1778022467 | 29.44° C | 67% | 1006.3 hPa | 0 mm | - | 126 W/m² | - |
| 1778022163 | 29.44° C | 67% | 1006.3 hPa | 0 mm | - | 164 W/m² | - |
| 1778021860 | 29.44° C | 67% | 1006.3 hPa | 0 mm | - | 151 W/m² | - |
| 1778021557 | 28.89° C | 68% | 1006.1 hPa | 0 mm | - | 175 W/m² | - |
| 1778021252 | 28.89° C | 67% | 1005.9 hPa | 0 mm | - | 136 W/m² | - |
| 1778020950 | 29.44° C | 66% | 1006.3 hPa | 0 mm | - | 95 W/m² | - |
* Rain latest hour (hover to see other rain measurements)
** Current wind speed in m/s (hover to see current wind gust speed)